Preview of NWS' New Version of Forecast
This preview is not operational and should not be used for support decisions.

Regional Weather Roundup (RWR)

Issued by National Weather Service (NWS)

                            
000
ASUS46 KSEW 181810
RWRWA 

WASHINGTON REGIONAL WEATHER ROUNDUP
NATIONAL WEATHER SERVICE SEATTLE WA
1100 AM PDT TUE JUN 18 2019

NOTE:"FAIR" INDICATES FEW OR NO CLOUDS BELOW 12,000 FEET WITH NO 
SIGNIFICANT WEATHER AND/OR OBSTRUCTIONS TO VISIBILITY.

WAZ507-509-555>559-181900-
SEATTLE, TACOMA, EVERETT, AND VICINITY
  
CITY           SKY/WX    TMP DP  RH WIND       PRES   REMARKS
EVERETT        CLOUDY    56  53  90 N7        30.24S                  
6HR MIN TEMP:  53; 6HR MAX TEMP:  57; 6HR PCP:  0.06;                

BOEING FIELD   CLOUDY    61  52  72 VRB5      30.23S                  
6HR MIN TEMP:  57; 6HR MAX TEMP:  61; 6HR PCP: TRACE;                

RENTON         CLOUDY    61  54  77 N3        30.23S                  
6HR MIN TEMP:  58; 6HR MAX TEMP:  61; 6HR PCP:  0.02;                

SEATAC AIRPORT DRZL/FOG  58  55  90 SE8       30.24S VSB 1            
6HR MIN TEMP:  56; 6HR MAX TEMP:  59; 6HR PCP:  0.17;                

JBLM-MCCHORD   CLOUDY    60  56  88 S7        30.24S                  
6HR MIN TEMP:  56; 6HR MAX TEMP:  60;                                

PUYALLUP       CLOUDY    61  54  77 VRB6      30.24F                  
BREMERTON      CLOUDY    58  55  90 S6        30.24S                  
6HR MIN TEMP:  55; 6HR MAX TEMP:  58; 6HR PCP: TRACE;                

JBLM-FT LEWIS  CLOUDY    60  56  89 S10       30.24R                  
6HR MIN TEMP:  56; 6HR MAX TEMP:  60;                                

TACOMA NARROWS CLOUDY    56  53  90 SW7       30.24F                  
6HR MIN TEMP:  54; 6HR MAX TEMP:  57; 6HR PCP:  0.02;                

$$
 
WAZ001-503-506-510-514-515-181900-
NORTH INTERIOR
  
CITY           SKY/WX    TMP DP  RH WIND       PRES   REMARKS
BELLINGHAM     FAIR      63  52  67 S10       30.20R                  
6HR MIN TEMP:  59; 6HR MAX TEMP:  64;                                

FRIDAY HARBOR  CLOUDY    64  51  62 SW12      30.22R                  
6HR MIN TEMP:  57; 6HR MAX TEMP:  67;                                

EASTSOUND      FAIR      64  54  68 CALM      30.19S                  
PORT ANGELES   CLOUDY    56  50  80 VRB6      30.26R                  
6HR MIN TEMP:  52; 6HR MAX TEMP:  59;                                

EDIZ HOOK      MOCLDY    57  51  78 W10G18    30.25R                  
6HR MIN TEMP:  52; 6HR MAX TEMP:  58;                                

PORT TOWNSEND  CLOUDY    61  52  72 NW15      30.23R                  
NAS WHIDBEY    NOT AVBL                                               
ARLINGTON      CLOUDY    62  50  64 NW9       30.24S                  
6HR MIN TEMP:  55; 6HR MAX TEMP:  63;                                

BURLINGTON     PTSUNNY   68  54  60 S9        30.22R                  
$$
 
WAZ020-022-039-040-504-511-512-181900-
SOUTHWEST INTERIOR
  
CITY           SKY/WX    TMP DP  RH WIND       PRES   REMARKS
SHELTON        CLOUDY    60  53  77 SW8       30.21F                  
6HR MIN TEMP:  57; 6HR MAX TEMP:  60;                                

OLYMPIA        CLOUDY    60  50  69 SW7       30.24S                  
6HR MIN TEMP:  55; 6HR MAX TEMP:  60;                                

CHEHALIS       CLOUDY    61  52  72 W6        30.26S                  
KELSO          CLOUDY    62  50  64 W10       30.27R                  
6HR MIN TEMP:  58; 6HR MAX TEMP:  62;                                

VANCOUVER      PTSUNNY   66  49  54 NW12      30.24S                  
6HR MIN TEMP:  60; 6HR MAX TEMP:  66;                                

SCAPPOOSE, OR  CLOUDY    65  50  58 W9G16     30.24S                  
6HR MIN TEMP:  57; 6HR MAX TEMP:  65;                                

PORTLAND, OR   PTSUNNY   66  50  56 NW13G18   30.24S                  
6HR MIN TEMP:  61; 6HR MAX TEMP:  67;                                

$$
 
WAZ021-516-517-181900-
WASHINGTON COAST
  
CITY           SKY/WX    TMP DP  RH WIND       PRES   REMARKS
FORKS          CLOUDY    57  51  80 W10       30.28R                  
6HR MIN TEMP:  53; 6HR MAX TEMP:  58; 6HR PCP:  0.01;                

HOQUIAM        PTSUNNY   60  50  69 W16       30.26F                  
6HR MIN TEMP:  55; 6HR MAX TEMP:  61;                                

ASTORIA, OR    CLOUDY    59  50  72 NW12      30.29S                  
6HR MIN TEMP:  56; 6HR MAX TEMP:  59;                                

$$
 
WAZ019-023-024-040-567>569-181900-
CASCADE MOUNTAINS AND COLUMBIA GORGE
  
CITY           SKY/WX    TMP DP  RH WIND       PRES   REMARKS
STAMPEDE PASS  CLOUDY    51  46  83 VRB7      30.20R                  
6HR MIN TEMP:  50; 6HR MAX TEMP:  53;                                

TROUTDALE, OR  CLOUDY    66  52  60 NW6       30.23F                  
6HR MIN TEMP:  60; 6HR MAX TEMP:  67;                                

HOOD RIVER, OR FAIR      68  50  52 NW15G25   30.15F                  
THE DALLES, OR FAIR      73  51  46 W21G30    30.10F                  
6HR MIN TEMP:  63; 6HR MAX TEMP:  73;                                

$$

WAZ026-027-041>044-520-521-181900-
EAST SLOPES
  
CITY           SKY/WX    TMP DP  RH WIND       PRES   REMARKS
OMAK           FAIR      82  43  25 N14       29.98R                  
6HR MIN TEMP:  61; 6HR MAX TEMP:  82;                                

WENATCHEE      FAIR      79  40  24 W20       30.00S                  
6HR MIN TEMP:  67; 6HR MAX TEMP:  79;                                

ELLENSBURG     FAIR      73  48  41 NW25G36   30.05S                  
6HR MIN TEMP:  63; 6HR MAX TEMP:  73;                                

YAKIMA         FAIR      79  46  31 W8        30.03F                  
6HR MIN TEMP:  64; 6HR MAX TEMP:  79;                                

SUNNYSIDE ARPT FAIR      80  52  37 W10       30.02                   
6HR MIN TEMP:  55; 6HR MAX TEMP:  80;                                

YAKIMA TC      FAIR      77  44  31 NW13      30.02F                  
6HR MIN TEMP:  63; 6HR MAX TEMP:  77;                                

$$

WAZ028-034-035-181900-
COLUMBIA BASIN
  
CITY           SKY/WX    TMP DP  RH WIND       PRES   REMARKS
EPHRATA        FAIR      82  39  21 NW8       29.98S                  
6HR MIN TEMP:  68; 6HR MAX TEMP:  82;                                

MOSES LAKE     FAIR      84  44  24 W9G21     29.98F                  
6HR MIN TEMP:  64; 6HR MAX TEMP:  85;                                

PASCO          FAIR      82  50  32 SW14G22   30.01S                  
6HR MIN TEMP:  67; 6HR MAX TEMP:  82;                                

RICHLAND ARPT  FAIR      83  52  34 S14       30.00                   
6HR MIN TEMP:  64; 6HR MAX TEMP:  83;                                

HERMISTON, OR  FAIR      80  53  39 W13       30.04S                  
6HR MIN TEMP:  64; 6HR MAX TEMP:  80;                                

$$

WAZ036>038-181900-
NORTHEAST WASHINGTON
  
CITY           SKY/WX    TMP DP  RH WIND       PRES   REMARKS
SPOKANE GEIGER PTSUNNY   73  45  36 VRB6      30.00S                  
6HR MIN TEMP:  58; 6HR MAX TEMP:  75;                                

SPOKANE FELTS  FAIR      75  48  38 SW13      29.99F                  
6HR MIN TEMP:  62; 6HR MAX TEMP:  75;                                

FAIRCHILD AFB  FAIR      74  48  40 W6        30.00S                  
6HR MIN TEMP:  55; 6HR MAX TEMP:  74;                                

COEURDALENE,ID PTSUNNY   72  52  49 SW8       30.02R                  
6HR MIN TEMP:  58; 6HR MAX TEMP:  73;                                

DEER PARK      FAIR      72  47  40 MISG      29.99F                  
6HR MIN TEMP:  58; 6HR MAX TEMP:  72;                                

$$

WAZ029>033-181900-
SOUTHEAST WASHINGTON
  
CITY           SKY/WX    TMP DP  RH WIND       PRES   REMARKS
PULLMAN        FAIR      71  50  47 W13G21    30.08R                  
6HR MIN TEMP:  59; 6HR MAX TEMP:  72;                                

LEWISTON, ID   FAIR      81  48  31 NW14      30.00S                  
6HR MIN TEMP:  62; 6HR MAX TEMP:  81;                                

WALLA WALLA    FAIR      77  48  35 SW13G21   30.05R                  
6HR MIN TEMP:  64; 6HR MAX TEMP:  77;                                

PENDLETON, OR  FAIR      77  49  37 W12G23    30.06S                  
6HR MIN TEMP:  61; 6HR MAX TEMP:  77;                                

$$